sat.trackr.live / text

‹ back to catalog

STARLINK-32340

NORAD 61008 · 2024-158U

PAYLOAD ACTIVE UNKNOWN

§ Identity

Operator
Country
US
Launch date
2024-09-05
Launch site
AFETR
Launch vehicle
Mass (kg)
RCS (m²)

Purposes: comms

External: N2YO · Heavens-Above · Gunter

§ Orbital elements

Epoch: 2026-05-25T01:50:03.350688Z

Period
94.11 min
Inclination
53.1602°
Eccentricity
0.0001265
Mean motion
15.30197937 rev/d
Perigee alt
474.4 km
Apogee alt
476.1 km
Semi-major
6,853.4 km
B*
-3.8875e-5
RAAN
70.8445°
Arg perigee
91.5017°
Mean anomaly
268.6128°
Rev number
9,727

§ Raw data

STARLINK-323401 61008U 24158U   26145.07642767 -.00001510  00000+0 -38875-4 0  99952 61008  53.1602  70.8445 0001265  91.5017 268.6128 15.30197937 97272

JSON: /api/v1/satellites/61008 · /tle

For live sub-satellite position, see the globe view (requires WebGL).

§ Visibility from observer

Set your observer location to see the next 7 days of passes ≥ 10°. The values pass through the URL so the page stays shareable.

No JS? Fill the form by hand. The geolocation button needs JavaScript.